Lexington Weather

Lexington, Massachusetts, USA

26°F
12/12/2019 5:29pm 
  • Lexington Conditions: Partly cloudy
  • Temperature: 25.5°F / -3.6°CColder 2.0°F than last hour.
  • Dew Point: 19.9°F 
  • Relative Humidity: 79%Increased 6.0% since last hour.
  • Wind: Wind from WSW WSW Calm, 10-min avg: 1 mph, gust: 2 mph
  • Barometer: 30.67 in Steady
  • Visibility: 10 miles
  • Snow Today: 0.0 in
  •   

Regional Weather Roundup
for Boston / Norton, MA

        
000
ASUS41 KBOX 110010
RWRBOX

REGIONAL WEATHER ROUNDUP
NATIONAL WEATHER SERVICE BOSTON/NORTON MA
700 PM EST TUE DEC 10 2019

NOTE:  "FAIR" INDICATES FEW OR NO CLOUDS BELOW 12,000 FEET WITH NO 
SIGNIFICANT WEATHER AND/OR OBSTRUCTIONS TO VISIBILITY.

MAZALL-110100-
EASTERN MASSACHUSETTS
  
CITY           SKY/WX    TMP DP  RH WIND       PRES   REMARKS
BOSTON         CLOUDY    57  50  77 SW12      29.83R                  
6HR MIN TEMP:  56; 6HR MAX TEMP:  62; 6HR PCP:  0.08;                

BEVERLY        LGT RAIN  54  50  86 W20G28    29.85R                  
LAWRENCE       LGT RAIN  50  46  86 W16       29.87R                  
BEDFORD        LGT RAIN  50  41  71 W21G31    29.87R                  
BLUE HILL        N/A     51  50  96 SW13G22   29.82R                  
NORWOOD        CLOUDY    57  50  77 SW8       29.85R                  
MARSHFIELD     FAIR      55  55 100 SW8G15    29.83R                  
PLYMOUTH       CLOUDY    54  52  93 SW14      29.85S                  
TAUNTON        CLOUDY    54  51  90 S7        29.85R                  
NEW BEDFORD    CLOUDY    54  51  90 SW9       29.87R                  
$$

MAZALL-110100-
CAPE COD AND THE ISLANDS
  
CITY           SKY/WX    TMP DP  RH WIND       PRES   REMARKS
FALMOUTH       DRIZZLE   52  52 100 W18G30    29.87R                  
HYANNIS        LGT RAIN  55  52  89 SW13      29.87R FOG              
CHATHAM        LGT RAIN  52  52 100 W8G18     29.91R FOG              
PROVINCETOWN   CLOUDY    51  50  96 S16       29.86R                  
NANTUCKET      CLOUDY    52  50  93 SW13      29.92R FOG              
MARTHAS VNYRD  LGT RAIN  54  52  93 W10       29.89R FOG              
$$
 
MAZALL-110100-
CENTRAL AND WESTERN MASSACHUSETTS
  
CITY           SKY/WX    TMP DP  RH WIND       PRES   REMARKS
WORCESTER      LGT RAIN  41  37  86 W17G28    29.88R                  
6HR MIN TEMP:  41; 6HR MAX TEMP:  52; 6HR PCP:  0.13;                

FITCHBURG      LGT RAIN  44  38  79 W12       29.90R                  
ORANGE         LGT RAIN  43  36  76 W7        29.93R                  
SPRINGFIELD    LGT RAIN  42  36  79 NW10      29.93R                  
WESTFIELD      LGT RAIN  40  35  83 NW7       29.94R                  
NORTH ADAMS    CLOUDY    36  32  85 W7G18     29.94F WCI  30          
PITTSFIELD     FLURRIES  34  31  88 W6        29.94R WCI  29          
$$
 
RIZALL-110100-
RHODE ISLAND
  
CITY           SKY/WX    TMP DP  RH WIND       PRES   REMARKS
PROVIDENCE     CLOUDY    54  51  90 SW13      29.88R                  
6HR MIN TEMP:  54; 6HR MAX TEMP:  58; 6HR PCP:  0.18;                

NEWPORT        CLOUDY    53  51  93 SW5       29.88R                  
BLOCK ISLAND   CLOUDY    52  50  93 SW13      29.92R                  
SMITHFIELD     CLOUDY    54  52  94 W8        29.87R                  
WESTERLY       CLOUDY    54  50  86 SW9       29.90R FOG              
$$
 
CTZALL-110100-
CONNECTICUT
  
CITY           SKY/WX    TMP DP  RH WIND       PRES   REMARKS
BRADLEY INTL   LGT RAIN  42  37  82 VRB7      29.94R                  
6HR MIN TEMP:  42; 6HR MAX TEMP:  53; 6HR PCP:  0.09;                

HARTFORD       LGT RAIN  46  40  79 N8        29.95R                  
BRIDGEPORT     LGT RAIN  51  49  92 W7        29.92R                  
DANBURY        LGT RAIN  48  43  82 NW10      29.96R                  
GROTON         CLOUDY    52  51  97 W10       29.90R                  
NEW HAVEN      LGT RAIN  54  51  90 SW5       29.91R                  
CHESTER        LGT RAIN  54  52  94 W7        29.91R                  
MERIDEN        LGT RAIN  49  44  83 NW14G31   29.94R                  
WILLIMANTIC    LGT RAIN  45  41  86 NW14G24   29.94R                  
OXFORD         LGT RAIN  46  43  87 W12G26    29.94R                  
$$

MEZ002-015-021-024-NHZ003-005-008-011-012-014-VTZ005-008-110100-
NORTHERN NEW ENGLAND
  
CITY           SKY/WX    TMP DP  RH WIND       PRES   REMARKS
PORTLAND ME    LGT RAIN  53  43  68 W15       29.79R                  
6HR MIN TEMP:  53; 6HR MAX TEMP:  58; 6HR PCP:  0.01;                

BANGOR ME      CLOUDY    51  48  89 W6        29.73R                  
CONCORD NH     LGT RAIN  44  38  79 NW13      29.88R                  
MANCHESTER NH  LGT RAIN  48  42  80 W8G17     29.87R                  
NASHUA NH      LGT RAIN  46  44  93 W12G17    29.89R                  
PORTSMOUTH NH  LGT RAIN  50  49  95 W12       29.82R                  
JAFFREY NH     LGT RAIN  40  36  86 W10G20    29.90R                  
KEENE NH       LGT RAIN  41  35  79 NW8       29.91R                  
BURLINGTON VT  CLOUDY    40  21  46 W13       29.92R                  
MT. WASHINGTON BLWGSNOW  18  18 100 W68G79      N/A  VSB 0   WCI  -9  
$$

NYZ052-076-110100-
EASTERN NEW YORK
  
CITY           SKY/WX    TMP DP  RH WIND       PRES   REMARKS
ALBANY         CLOUDY    40  30  67 W10       30.00R                  
6HR MIN TEMP:  39; 6HR MAX TEMP:  52; 6HR PCP:  0.01;                

NEW YORK CITY  CLOUDY    55  45  68 W14G28    29.93R                  
6HR MIN TEMP:  55; 6HR MAX TEMP:  57; 6HR PCP:  0.09;                

$$
 
ANZALL-110100-
MARINE OBSERVATIONS
  
STATION/POSITION TIME  TEMP    WIND        PRES    VSBY  WAVE
                       AIR SEA DIR/SP/G                  HT/PER
                 (UTC) (F)     (DEG/KT/KT) (MB)    (MI)  (FT/S)
BOSTON BUOY      2350   52 48  200/ 12/ 14 1009.2R         4/11
BUZZARDS BAY     2300   51     240/ 22/ 23 1011.5R
NANTUCKET SOUND  2340   48 44                N/A
MASS BAY-STELLWA 2304   49 46  230/ 14/ 16 1007.9R  1 3/4  5/11
ISLE OF SHOALS   2300   54     230/ 19/ 20 1007.7R
S OF BLOCK IS    0000      53                N/A          12/11
$$

......................KEY.........................
  SKY/WX - SKY CONDITION/PRESENT WEATHER
  TMP    - TEMPERATURE IN FAHRENHEIT
  DWPT   - DEWPOINT IN FAHRENHEIT
  RH     - RELATIVE HUMIDITY IN PERCENT
  WIND   - DIRECTION AND SPEED IN MPH
  PRES   - MEAN SEA LEVEL PRESSURE IN INCHES OF HG
  WCI    - WIND CHILL INDEX
  VSB    - VISIBILITY IN MILES
  HX     - HEAT INDEX
  TC     - TEMPERATURE IN CELSIUS
  VRB    - VARIABLE WIND DIRECTION
  N/A    - NOT AVAILABLE
  
      

Other recent Regional Weather Roundups

Thu Dec 12, 5:10pm

Thu Dec 12, 5:00pm

Thu Dec 12, 4:10pm

Thu Dec 12, 4:01pm

Thu Dec 12, 3:10pm

Thu Dec 12, 3:00pm

Thu Dec 12, 2:10pm

Thu Dec 12, 2:01pm

Thu Dec 12, 1:10pm

Thu Dec 12, 1:00pm

Thu Dec 12, 12:10pm

Thu Dec 12, 12:00pm

Thu Dec 12, 11:10am

Thu Dec 12, 11:00am

Thu Dec 12, 10:10am

Thu Dec 12, 8:10am

Thu Dec 12, 8:00am

Thu Dec 12, 7:10am

Thu Dec 12, 7:00am

Thu Dec 12, 6:10am

Thu Dec 12, 6:00am

Thu Dec 12, 5:10am

Thu Dec 12, 5:00am

Thu Dec 12, 4:10am

Thu Dec 12, 4:00am

Thu Dec 12, 3:10am

Thu Dec 12, 3:00am

Thu Dec 12, 2:10am

Thu Dec 12, 2:00am

Thu Dec 12, 1:10am

Thu Dec 12, 1:00am

Thu Dec 12, 12:10am

Thu Dec 12, 12:00am

Wed Dec 11, 11:10pm

Wed Dec 11, 11:00pm

Wed Dec 11, 10:10pm

Wed Dec 11, 10:00pm

Wed Dec 11, 9:10pm

Wed Dec 11, 9:00pm

Wed Dec 11, 8:10pm

Wed Dec 11, 8:00pm

Wed Dec 11, 7:10pm

Wed Dec 11, 7:00pm

Wed Dec 11, 6:10pm

Wed Dec 11, 6:00pm

Wed Dec 11, 5:10pm

Wed Dec 11, 5:01pm

Wed Dec 11, 4:10pm

Wed Dec 11, 4:00pm

Wed Dec 11, 3:10pm

Wed Dec 11, 3:01pm

Wed Dec 11, 2:10pm

Wed Dec 11, 2:00pm

Wed Dec 11, 1:10pm

Wed Dec 11, 1:00pm

Wed Dec 11, 12:10pm

Wed Dec 11, 12:00pm

Wed Dec 11, 11:10am

Wed Dec 11, 11:00am

Wed Dec 11, 10:10am

Wed Dec 11, 10:00am

Wed Dec 11, 9:10am

Wed Dec 11, 9:00am

Wed Dec 11, 8:10am

Wed Dec 11, 8:00am

Wed Dec 11, 7:10am

Wed Dec 11, 7:00am

Wed Dec 11, 6:10am

Wed Dec 11, 6:00am

Wed Dec 11, 5:10am

Wed Dec 11, 5:00am

Wed Dec 11, 4:10am

Wed Dec 11, 4:00am

Wed Dec 11, 3:10am

Wed Dec 11, 3:01am

Wed Dec 11, 2:10am

Wed Dec 11, 2:01am

Wed Dec 11, 1:10am

Wed Dec 11, 1:00am

Wed Dec 11, 12:10am

Wed Dec 11, 12:00am

Tue Dec 10, 11:10pm

Tue Dec 10, 11:00pm

Tue Dec 10, 10:10pm

Tue Dec 10, 10:00pm

Tue Dec 10, 9:10pm

Tue Dec 10, 9:01pm

Tue Dec 10, 8:10pm

Tue Dec 10, 8:00pm

Tue Dec 10, 7:01pm

Tue Dec 10, 6:10pm

Tue Dec 10, 6:01pm

Tue Dec 10, 5:10pm

Tue Dec 10, 5:00pm

Tue Dec 10, 4:10pm

Tue Dec 10, 4:01pm

Tue Dec 10, 3:10pm

Tue Dec 10, 3:01pm

Tue Dec 10, 2:10pm

Tue Dec 10, 2:01pm

Tue Dec 10, 1:10pm

Tue Dec 10, 1:00pm

Tue Dec 10, 12:10pm

Tue Dec 10, 12:00pm

Tue Dec 10, 11:10am

Tue Dec 10, 11:00am

Tue Dec 10, 10:10am

Tue Dec 10, 10:00am

Tue Dec 10, 9:10am

Tue Dec 10, 9:01am

Tue Dec 10, 8:10am

Tue Dec 10, 8:00am

Tue Dec 10, 7:10am

Tue Dec 10, 7:00am

Tue Dec 10, 6:10am

Tue Dec 10, 6:00am

Tue Dec 10, 5:10am

Tue Dec 10, 5:00am

Tue Dec 10, 4:10am

Tue Dec 10, 4:00am

Tue Dec 10, 3:10am

Tue Dec 10, 3:00am

Tue Dec 10, 2:10am

Tue Dec 10, 2:01am

Tue Dec 10, 1:10am

Tue Dec 10, 1:00am

Tue Dec 10, 12:10am

Tue Dec 10, 12:01am

Mon Dec 9, 11:10pm

Mon Dec 9, 11:01pm

Mon Dec 9, 10:10pm

Mon Dec 9, 10:00pm

Mon Dec 9, 9:10pm

Mon Dec 9, 9:01pm

Mon Dec 9, 8:10pm

Mon Dec 9, 8:01pm

Mon Dec 9, 7:10pm

Mon Dec 9, 7:00pm

Mon Dec 9, 6:10pm

Mon Dec 9, 6:00pm

Meta data:

ID: b575ed94-47bb-41e0-ba6b-49bdca13acd1
Link: https://api.weather.gov/products/b575ed94-47bb-41e0-ba6b-49bdca13acd1